Погода в Панфилове

Погода в Панфилове : погода сейчас, прогноз погоды и архив. Всё, что Вы хотите узнать о погоде в Панфилове!

Хотите узнать прогноз погоды в Панфилове? Тогда Вам сюда: Погода в Панфилове

Поиск расширенной информации на нашем сайте:

Другие новости

Новости СМИ2

Главная страница сайта

Новости сайта

03.07.2017

Напоминаем, что на нашем специализированном сайте Метеоцентр.Азия вы можете получить высокодетализированные автоматические прогнозы погоды по пунктам России, СНГ и мира в авиационном формате (включающие направление и скорость ветра, видимость, явления погоды, количество и форму облачности, нижнюю и верхнюю границу облачности).


Погода в Панфилове - сегодня

Время (UTC), дата Ветер
(°,м/с) 
Видим.   Явления Облачность Т
(°С)
Тd
(°С)
f(%) Тe
(°С)
Pmin
(гПа)
dP
(гПа)
Po
(мм)
O2
(г/м3)
Тmin Tmax R s Состояние
почвы
18 18.01.18 040 (СВ) н/о  дымка{туман}  6/0 средняя, верхняя 
[As trans|Cs]
-15.3 -18.1 79 -15  1034.3  -0.3  713  306    -7.4       
21 18.01.18 020 (С) н/о    4/0 средняя 
[Ac lent]
-15.8 -18.6 79 -16  1032.8  -1.5  712  306           
00 19.01.18 тихо () {03}  н/о    3/0 средняя 
[Ac lent]
-17.6 -20.7 77 -18  1032.8  -0.6  711  308           
03 19.01.18 тихо ()   1000 м  дымка  9/0 средняя, верхняя 
[As trans|Cs]
-15.6 -18.3 80 -16  1032.3  0.1  712  305        15  равномерный
сухой снег
100% 
06 19.01.18 тихо ()   20000 м    9/0 средняя, верхняя 
[Ac As|Cs]
-8.5 -12.2 75 -9  1030.1  0.1  712  297  -18.2         
09 19.01.18 200 (Ю) 20000 м    9/0 средняя, верхняя 
[Ac As|Cs]
-3.4 -11.5 53 -3  1028.4  712  291           
12 19.01.18 тихо ()   н/о    10/0 средняя 
[Ac As]
-8.4 -12 75 -8  1032  1.9  713  297           
15 19.01.18 тихо ()   н/о    9/0 средняя, верхняя 
[Ac As|Cs]
-11.4 -13.7 83 -11  1035.1  1.9  714  302    -3       
18 19.01.18 тихо ()   н/о    9/0 средняя, верхняя 
[Ac As|Cs]
-11 -14.1 78 -11  1034.6  -0.4  714  301    -3       
21 19.01.18 320 (СЗ) н/о    10/0 средняя 
[Ac As]
-8.2 -11.8 75 -8  1034.5  0.8  715  298           
00 20.01.18 тихо () {04}  н/о    6/0 средняя 
[Ac As]
-8 -11.5 76 -8  1034.3  -0.1  715  298           
03 20.01.18 030 (СВ) 20000 м    9/0 средняя, верхняя 
[Ac As|Cs]
-6.2 -11.4 67 -6  1032.9  -0.8  714  295  -11.4      14  равномерный
сухой снег
100% 
06 20.01.18 040 (СВ) 20000 м    9/0 средняя, верхняя 
[Ac lent|Cs]
-5.6 -11 66 -5  1032.9  0.2  714  295  -11.4         
09 20.01.18 тихо ()   20000 м    9/0 средняя, верхняя 
[Ac lent|Cs]
+3 -7.5 46 +3  1028  -2.1  713  285           
12 20.01.18 030 (СВ) н/о    10/0 средняя 
[Ac As]
-0.6 -5 72 1028.7  -0.3  712  288           
15 20.01.18 тихо ()   н/о    8/0 средняя, верхняя 
[Ac lent|Cs]
-5.5 -8.4 80 -6  1030.3  712  294    +3.8       
18 20.01.18 тихо ()   н/о    10/0 средняя 
[Ac As]
-6.2 -9.3 79 -6  1029.6  -0.8  712  294    +3.8       
21 20.01.18 тихо ()   н/о    6/0 средняя, верхняя 
[Ac lent|Cs]
-6.6 -9.8 78 -7  1028.6  -1.1  711  294           
00 21.01.18 030 (СВ) 1{03}  н/о    3/0 средняя 
[Ac lent]
-10 -12.6 81 -10  1028.6  -0.9  710  298           
03 21.01.18 040 (СВ) 20000 м    3/0 средняя 
[Ac lent]
-9 -11.8 80 -9  1028.6  0.3  711  297        13  равномерный
сухой снег
100% 
06 21.01.18 130 (ЮВ) 20000 м    ясно 
+1 -7.1 55 +2  1025.3  -0.3  710  286  -10.8         
09 21.01.18 170 (Ю) 20000 м    ясно 
+3.6 -5.3 52 +4  1022.7  -1.6  717  285           
12 21.01.18 тихо ()   20000 м    3/0 средняя 
[Ac lent]
-1.5 -5.7 73 -2  1023.8  -0.4  709  288           
15 21.01.18 тихо ()   н/о    ясно 
-7 -9.8 80 -7  1025.4  -0.1  709  294    +3.6       
18 21.01.18 тихо ()   н/о    ясно 
-9 -11.8 80 -9  1025.4  -0.6  708  296    +3.6       
Время (UTC), дата Ветер
(°,м/с) 
Видим.   Явления Облачность Т
(°С)
Тd
(°С)
f(%) Тe
(°С)
Pmin
(гПа)
dP
(гПа)
Po
(мм)
O2
(г/м3)
Тmin Tmax R s Состояние
почвы

Для получения пояснительной информации подведите курсор к названию столбца.

ПОГОДА в Панфилове - архив

Всё, что Вы хотите узнать о погоде в Панфилове - удобно и подробно!

Выберите нужную дату (начиная с 1 января 2015* года) и нажмите кнопку "Найти".
Будут отображены архивные сводки погоды по пункту Панфилов, начиная с указанной даты.


Отображать данные в формате CSV (для использования в таблицах Excel)


Внимание! Наш архив погоды предназначен исключительно для личного некоммерческого использования в познавательных целях. Если Вам необходимы официальные справки о состоянии погоды (для производственных, юридических, коммерческих и т.п. целей), обращайтесь в органы Росгидромета.

*Примечание: данная дата относится к архиву по метеостанциям СССР (Россия, СНГ, Балтия).
Архив по метеостанциям Зарубежной Европы и Азии (кроме Китая) хранится 10 дней, по другим регионам земного шара (Китай, Африка, Америка, Австралия, Океания) - 1 день.

Панфилов - район местоположения метеостанции


Название, широта, долгота, высота метеостанции:
Панфилов 44.2°ш. 80.1°д. 645 м над ур. моря [Казахстан]

Дополнительная информация

В oтличие oт бoльшинства пoгoдных сайтoв мы публикуем пoдрoбную метеoинфoрмацию в детальнoм прoфессиoнальнoм фoрмате.

Характеристики температуры и влажнoсти вoздуха измеряются на высoте 2 м в тени вдали oт зданий и деревьев.
Скoрoсть ветра измеряется на высoте 10 м (на урoвне рoста челoвека скoрoсть ветра ниже в 1.5-2 раза). Если метеoстанция нахoдится в гoрoде или в лесу, тo скoрoсть ветра занижена на 2-4 м/с пo сравнению с oткрытым местoм. Скoрoсть ветра над акватoриями крупных рек и oзёр, а также на вершинах хoлмoв на 2-5 м/с выше, чем в oбычных услoвиях.
Атмoсфернoе давление в разных тoчках местнoсти мoжет значительнo oтличаться oт давления на метеoстанции, в зависимoсти oт услoвий рельефа (при пoдъёме на 10 м давление пoнижается примернo на 1 мм рт.ст.).